EST,Max TemperatureF,Mean TemperatureF,Min TemperatureF,Max Dew PointF,MeanDew PointF,Min DewpointF,Max Humidity, Mean Humidity, Min Humidity, Max Sea Level PressureIn, Mean Sea Level PressureIn, Min Sea Level PressureIn, Max VisibilityMiles, Mean VisibilityMiles, Min VisibilityMiles, Max Wind SpeedMPH, Mean Wind SpeedMPH, Max Gust SpeedMPH,PrecipitationIn, CloudCover, Events, WindDirDegrees
2013-11-1,66,60,53,59,53,39,94,75,48,29.70,29.48,29.35,10,10,4,29,14,39,0.02,5,,211
2013-11-2,62,50,39,45,40,36,87,67,42,29.74,29.63,29.58,10,10,10,13,6,,0.00,3,,246
2013-11-3,42,35,28,36,20,12,81,52,29,30.38,30.08,29.75,10,10,10,14,6,21,0.00,4,,290
2013-11-4,41,31,21,21,16,10,86,61,29,30.69,30.59,30.40,10,10,10,10,1,,0.06,0,,355
2013-11-5,44,34,23,28,23,18,87,70,39,30.69,30.61,30.48,10,10,10,15,1,20,0.00,0,,200
2013-11-6,57,45,33,41,35,28,87,68,51,30.48,30.30,30.06,10,10,10,15,6,28,0.00,1,,230
2013-11-7,57,47,37,52,41,25,94,73,56,29.90,29.77,29.67,10,10,2,16,9,22,0.01,6,,248
2013-11-8,42,36,30,28,21,18,69,53,42,30.03,29.89,29.80,10,10,10,16,10,26,0.00,5,,267
2013-11-9,41,37,33,25,19,18,70,49,39,30.15,30.08,30.00,10,10,10,14,7,25,0.00,2,,280
2013-11-10,41,37,33,37,33,25,93,84,60,29.99,29.81,29.70,10,8,2,9,2,22,0.00,6,,248
2013-11-11,46,40,35,34,26,23,87,57,43,30.05,29.94,29.82,10,10,10,20,9,28,0.00,4,,254
2013-11-12,42,34,26,30,16,10,70,55,44,30.15,30.03,29.83,10,10,10,15,10,31,0.00,5,,279
2013-11-13,32,26,21,12,9,7,59,49,37,30.25,30.18,30.07,10,10,10,15,9,22,0.00,1,,261
2013-11-14,46,37,28,27,21,14,86,58,42,30.07,30.03,30.00,10,10,10,17,8,26,0.00,0,,242
2013-11-15,51,40,30,25,21,18,80,55,26,30.17,30.11,30.07,10,10,10,13,6,,0.00,0,,245
2013-11-16,53,40,28,30,26,21,93,67,28,30.32,30.26,30.17,10,10,5,7,2,,0.00,1,,297
2013-11-17,46,35,26,45,35,25,93,89,80,30.31,30.19,29.85,10,7,1,12,3,,0.00,6,,37
2013-11-18,60,52,44,55,41,27,94,67,39,29.84,29.58,29.47,10,9,3,21,8,32,0.00,4,,240
2013-11-19,44,37,30,27,16,10,65,47,38,30.26,29.94,29.60,10,10,10,23,15,33,0.00,5,,285
2013-11-20,39,30,21,18,11,9,74,48,28,30.61,30.49,30.27,10,10,10,14,5,20,0.00,0,,276
2013-11-21,42,30,19,21,15,7,86,58,23,30.62,30.51,30.33,10,10,10,13,2,17,0.00,0,,241
2013-11-22,39,35,33,36,31,21,93,83,60,30.33,30.08,29.77,10,8,0,9,3,,0.00,6,,254
2013-11-23,42,34,24,37,21,10,93,62,35,29.90,29.79,29.71,10,9,1,18,10,29,0.00,4,,269
2013-11-24,24,20,15,12,2,-2,63,48,39,30.12,29.90,29.74,10,10,9,22,14,39,0.00,3,,283
2013-11-25,28,21,14,10,-1,-8,58,40,26,30.31,30.24,30.13,10,10,10,17,11,30,0.00,1,,264
2013-11-26,33,28,24,28,22,10,93,74,47,30.28,30.22,30.08,10,8,2,13,5,,0.00,7,,231
2013-11-27,46,39,32,45,36,27,93,88,70,30.07,29.47,29.23,10,6,0,20,9,24,0.34,8,,290
2013-11-28,35,27,19,27,10,1,75,50,34,30.38,29.98,29.40,10,10,10,21,12,34,0.00,3,,267
2013-11-29,26,19,10,7,5,1,85,55,34,30.71,30.54,30.38,10,10,10,15,5,20,0.00,0,,268
2013-11-30,28,18,8,16,9,3,92,66,43,30.78,30.64,30.40,10,10,10,12,1,,0.00,0,,186